Hourly Weather Roundup
Issued by NWS Central Illinois

Home | Current Version | Previous Version | Text Only | Print | Product List | Glossary On
Versions: 1 2 3 4 5 6 7 8 9 10 11 12 13 14 15 16 17 18 19 20 21 22 23 24 25 26 27 28 29 30 31 32 33 34 35 36 37 38 39 40 41 42 43 44 45 46 47 48 49 50
000
NZUS43 KILX 282210
HWRILX

AREA WEATHER ROUNDUP
NATIONAL WEATHER SERVICE, LINCOLN IL
400 PM CST SUN DEC 28 2014


CITY           SKY/WX    TMP DP  RH WIND       PRES   REMARKS
BLOOMINGTON    CLEAR     32  20  61 CALM      30.20R
CHAMPAIGN      CLEAR     31  21  66 NW5       30.20S WCI  26
DECATUR        CLEAR     32  22  66 N3        30.21R
FLORA          CLOUDY    33  26  77 NW5       30.23R WCI  28
GALESBURG      CLEAR     33  19  54 CALM      30.17F
JACKSONVILLE   CLEAR     36  23  60 CALM      30.19F
LACON          CLEAR     33  18  54 CALM      30.19S
LAWRENCEVILLE  CLOUDY    33  26  75 N7        30.23R WCI  27
LITCHFIELD     MOCLDY    32  24  72 CALM      30.20S
$$


CITY           SKY/WX    TMP DP  RH WIND       PRES   REMARKS
LINCOLN        CLEAR     34  23  64 CALM      30.22R
MACOMB         CLEAR     36  24  62 CALM      30.20S
MATTOON        PTCLDY    31  22  69 NW8       30.20R WCI  23
MT CARMEL AP   CLOUDY    34  28  80 N5        30.22R WCI  30
OLNEY-NOBLE AP CLOUDY    32  27  80 CALM      30.23R
PARIS          MOCLDY    31  25  78 CALM      30.21S
PEORIA         CLEAR     35  17  47 CALM      30.20R
PONTIAC        CLEAR     32  17  53 CALM      30.20S
RANTOUL        CLEAR     33  20  60 NW3       30.20S
ROBINSON       CLOUDY    31  24  72 N6        30.24R WCI  26
SPRINGFIELD    CLEAR     34  23  64 CALM      30.20S
TAYLORVILLE    PTCLDY    32  25  74 CALM      30.20F
$$

...REGIONAL REPORTS...


CITY           SKY/WX    TMP DP  RH WIND       PRES   REMARKS
CHICAGO O`HARE PTCLDY    34  13  41 W9        30.16R WCI  27
KANKAKEE       CLEAR     31  20  64 W6        30.21R WCI  25
MOLINE         CLEAR     36  17  46 CALM      30.17R
MOUNT VERNON   CLOUDY    34  25  69 CALM      30.22S
PITTSFIELD     CLEAR     36  25  65 CALM      30.19R
QUINCY         CLEAR     35  19  52 SW5       30.18R WCI  31
ROCKFORD       CLEAR     33  16  49 W7        30.19R WCI  27
$$


CITY           SKY/WX    TMP DP  RH WIND       PRES   REMARKS
BURLINGTON     CLEAR     35  19  52 S6        30.16F WCI  30
CEDAR RAPIDS   CLEAR     32  16  51 CALM      30.15S
DES MOINES     PTCLDY    36  22  56 W3        30.14S
KIRKSVILLE     CLEAR     37  18  46 SW5       30.16R WCI  33
OTTUMWA        CLEAR     36  16  44 W5        30.15R WCI  32
ST LOUIS       PTCLDY    36  23  59 CALM      30.20F
$$


CITY           SKY/WX    TMP DP  RH WIND       PRES   REMARKS
TERRE HAUTE    CLOUDY    30  22  72 NW7       30.21R WCI  23
EVANSVILLE     CLOUDY    36  28  73 N7        30.23R WCI  30
INDIANAPOLIS   CLOUDY    29  23  78 NW6       30.19R WCI  23
LAFAYETTE      PTCLDY    28  23  81 NW5       30.21R WCI  23
MADISON        PTCLDY    31  18  58 CALM      30.15R
MILWAUKEE      PTCLDY    32  16  51 NW7       30.16R WCI  26
$$





USA.gov is the U.S. government's official web portal to all federal, state and local government web resources and services.